| time (UTC) | temp C | wind direction | speed KPH | gust KPH | rain 1hr cm | rain 24hr cm | rain mn cm | humidity % | barometer mb |
| 20260507090057 | 16 | 150 | 4.8 | 14.5 | 0.00 | 0.00 | 0.00 | 57 | 1014.9 |
| 20260507085555 | 16 | 164 | 4.8 | 17.7 | 0.00 | 0.00 | 0.00 | 56 | 1014.7 |
| 20260507085054 | 16 | 168 | 9.7 | 17.7 | 0.00 | 0.00 | 0.00 | 56 | 1015.0 |
| 20260507084555 | 16 | 143 | 6.4 | 17.7 | 0.00 | 0.00 | 0.00 | 56 | 1015.1 |
| 20260507084055 | 16 | 154 | 6.4 | 17.7 | 0.00 | 0.00 | 0.00 | 56 | 1015.2 |
| 20260507083552 | 16 | 166 | 6.4 | 17.7 | 0.00 | 0.00 | 0.00 | 56 | 1015.3 |
| 20260507083051 | 16 | 176 | 6.4 | 17.7 | 0.00 | 0.00 | 0.00 | 55 | 1015.1 |
| 20260507082550 | 17 | 191 | 8.0 | 20.9 | 0.00 | 0.00 | 0.00 | 55 | 1015.1 |
| 20260507082053 | 17 | 161 | 9.7 | 17.7 | 0.00 | 0.00 | 0.00 | 55 | 1014.9 |
| 20260507081552 | 17 | 178 | 4.8 | 9.7 | 0.00 | 0.00 | 0.00 | 55 | 1015.0 |
| 20260507081049 | 17 | 171 | 8.0 | 16.1 | 0.00 | 0.00 | 0.00 | 55 | 1015.2 |
| 20260507080051 | 17 | 188 | 4.8 | 17.7 | 0.00 | 0.00 | 0.00 | 55 | 1015.0 |
| 20260507075549 | 17 | 135 | 4.8 | 17.7 | 0.00 | 0.00 | 0.00 | 55 | 1014.8 |
| 20260507075047 | 17 | 148 | 8.0 | 17.7 | 0.00 | 0.00 | 0.00 | 54 | 1014.7 |
| 20260507074600 | 17 | 135 | 8.0 | 17.7 | 0.00 | 0.00 | 0.00 | 54 | 1014.5 |
| 20260507074146 | 17 | 157 | 6.4 | 17.7 | 0.00 | 0.00 | 0.00 | 54 | 1014.6 |
| 20260507073549 | 17 | 172 | 6.4 | 14.5 | 0.00 | 0.00 | 0.00 | 54 | 1014.6 |
| 20260507073044 | 17 | 150 | 4.8 | 14.5 | 0.00 | 0.00 | 0.00 | 54 | 1014.6 |
| 20260507072544 | 17 | 166 | 8.0 | 14.5 | 0.00 | 0.00 | 0.00 | 54 | 1014.6 |
| 20260507072042 | 17 | 174 | 6.4 | 14.5 | 0.00 | 0.00 | 0.00 | 54 | 1014.7 |
| 20260507071543 | 18 | 206 | 6.4 | 9.7 | 0.00 | 0.00 | 0.00 | 54 | 1014.5 |
| 20260507071042 | 18 | 178 | 6.4 | 14.5 | 0.00 | 0.00 | 0.00 | 54 | 1014.5 |
| 20260507070043 | 18 | 183 | 6.4 | 12.9 | 0.00 | 0.00 | 0.00 | 54 | 1014.4 |
| 20260507065542 | 18 | 176 | 4.8 | 12.9 | 0.00 | 0.00 | 0.00 | 53 | 1014.4 |
| 20260507065041 | 18 | 199 | 6.4 | 11.3 | 0.00 | 0.00 | 0.00 | 53 | 1014.5 |
| 20260507064541 | 18 | 168 | 4.8 | 14.5 | 0.00 | 0.00 | 0.00 | 53 | 1014.2 |
| 20260507064041 | 18 | 183 | 6.4 | 14.5 | 0.00 | 0.00 | 0.00 | 53 | 1014.4 |
| 20260507063538 | 18 | 195 | 6.4 | 14.5 | 0.00 | 0.00 | 0.00 | 53 | 1014.4 |
| 20260507063039 | 18 | 201 | 6.4 | 14.5 | 0.00 | 0.00 | 0.00 | 53 | 1014.3 |
| 20260507062537 | 18 | 180 | 6.4 | 14.5 | 0.00 | 0.00 | 0.00 | 53 | 1014.2 |
| 20260507062040 | 19 | 148 | 4.8 | 14.5 | 0.00 | 0.00 | 0.00 | 52 | 1014.1 |
| 20260507061536 | 19 | 149 | 4.8 | 14.5 | 0.00 | 0.00 | 0.00 | 52 | 1014.1 |
| 20260507061034 | 19 | 183 | 6.4 | 12.9 | 0.00 | 0.00 | 0.00 | 51 | 1013.9 |
| 20260507060035 | 19 | 195 | 6.4 | 14.5 | 0.00 | 0.00 | 0.00 | 50 | 1013.7 |
| 20260507055534 | 19 | 160 | 4.8 | 16.1 | 0.00 | 0.00 | 0.00 | 50 | 1013.6 |
| 20260507055035 | 20 | 146 | 6.4 | 17.7 | 0.00 | 0.00 | 0.00 | 49 | 1013.5 |
| 20260507054533 | 20 | 164 | 8.0 | 19.3 | 0.00 | 0.00 | 0.00 | 49 | 1013.4 |
| 20260507054033 | 20 | 147 | 6.4 | 16.1 | 0.00 | 0.00 | 0.00 | 49 | 1013.5 |
| 20260507053533 | 20 | 152 | 4.8 | 9.7 | 0.00 | 0.00 | 0.00 | 48 | 1013.4 |
| 20260507053035 | 20 | 106 | 3.2 | 12.9 | 0.00 | 0.00 | 0.00 | 48 | 1013.4 |
| 20260507052531 | 20 | 145 | 4.8 | 12.9 | 0.00 | 0.00 | 0.00 | 48 | 1013.2 |
| 20260507052031 | 20 | 199 | 4.8 | 16.1 | 0.00 | 0.00 | 0.00 | 47 | 1013.2 |
| 20260507051532 | 20 | 127 | 4.8 | 16.1 | 0.00 | 0.00 | 0.00 | 47 | 1013.1 |
| 20260507051029 | 21 | 135 | 3.2 | 9.7 | 0.00 | 0.00 | 0.00 | 47 | 1013.1 |
| 20260507050032 | 21 | 185 | 3.2 | 9.7 | 0.00 | 0.00 | 0.00 | 46 | 1012.9 |
| 20260507045531 | 21 | 127 | 4.8 | 12.9 | 0.00 | 0.00 | 0.00 | 46 | 1012.9 |
| 20260507045030 | 21 | 156 | 3.2 | 12.9 | 0.00 | 0.00 | 0.00 | 45 | 1013.0 |
| 20260507044530 | 21 | 117 | 3.2 | 11.3 | 0.00 | 0.00 | 0.00 | 45 | 1012.8 |
| 20260507044029 | 21 | 154 | 4.8 | 11.3 | 0.00 | 0.00 | 0.00 | 45 | 1012.9 |
| 20260507043529 | 21 | 168 | 3.2 | 8.0 | 0.00 | 0.00 | 0.00 | 45 | 1012.8 |
| 20260507043029 | 21 | 136 | 3.2 | 9.7 | 0.00 | 0.00 | 0.00 | 44 | 1012.8 |
| 20260507042529 | 21 | 139 | 3.2 | 11.3 | 0.00 | 0.00 | 0.00 | 44 | 1012.8 |
| 20260507042029 | 21 | 177 | 6.4 | 12.9 | 0.00 | 0.00 | 0.00 | 43 | 1012.7 |
| 20260507041528 | 21 | 104 | 4.8 | 9.7 | 0.00 | 0.00 | 0.00 | 43 | 1012.7 |
| 20260507041028 | 21 | 154 | 3.2 | 8.0 | 0.00 | 0.00 | 0.00 | 42 | 1012.7 |
| 20260507040027 | 22 | 164 | 3.2 | 8.0 | 0.00 | 0.00 | 0.00 | 41 | 1012.5 |
| 20260507035524 | 22 | 181 | 3.2 | 8.0 | 0.00 | 0.00 | 0.00 | 41 | 1012.5 |
| 20260507035024 | 22 | 157 | 4.8 | 8.0 | 0.00 | 0.00 | 0.00 | 40 | 1012.4 |
| 20260507034523 | 22 | 117 | 4.8 | 12.9 | 0.00 | 0.00 | 0.00 | 39 | 1012.5 |
| 20260507034023 | 22 | 150 | 4.8 | 12.9 | 0.00 | 0.00 | 0.00 | 39 | 1012.4 |
| 20260507033523 | 22 | 162 | 6.4 | 16.1 | 0.00 | 0.00 | 0.00 | 39 | 1012.2 |
| 20260507033024 | 22 | 156 | 8.0 | 16.1 | 0.00 | 0.00 | 0.00 | 38 | 1012.1 |
| 20260507032523 | 23 | 193 | 9.7 | 16.1 | 0.00 | 0.00 | 0.00 | 38 | 1012.1 |
| 20260507032025 | 23 | 152 | 8.0 | 14.5 | 0.00 | 0.00 | 0.00 | 37 | 1012.0 |
| 20260507031521 | 23 | 170 | 6.4 | 16.1 | 0.00 | 0.00 | 0.00 | 36 | 1012.1 |
| 20260507031025 | 23 | 136 | 4.8 | 9.7 | 0.00 | 0.00 | 0.00 | 32 | 1012.0 |
| 20260507030023 | 23 | 152 | 3.2 | 8.0 | 0.00 | 0.00 | 0.00 | 31 | 1011.7 |
| 20260507025522 | 23 | 140 | 3.2 | 8.0 | 0.00 | 0.00 | 0.00 | 31 | 1011.5 |
| 20260507025022 | 23 | 177 | 4.8 | 8.0 | 0.00 | 0.00 | 0.00 | 30 | 1011.5 |
| 20260507024525 | 23 | 174 | 3.2 | 8.0 | 0.00 | 0.00 | 0.00 | 28 | 1011.5 |
| 20260507024025 | 23 | 169 | 1.6 | 4.8 | 0.00 | 0.00 | 0.00 | 27 | 1011.4 |
| 20260507023522 | 23 | 157 | 1.6 | 4.8 | 0.00 | 0.00 | 0.00 | 26 | 1011.3 |
| 20260507023021 | 23 | 156 | 1.6 | 6.4 | 0.00 | 0.00 | 0.00 | 26 | 1011.1 |
| 20260507022525 | 23 | 164 | 1.6 | 8.0 | 0.00 | 0.00 | 0.00 | 26 | 1010.9 |
| 20260507022025 | 23 | 162 | 3.2 | 8.0 | 0.00 | 0.00 | 0.00 | 25 | 1010.9 |
| 20260507021522 | 24 | 192 | 4.8 | 8.0 | 0.00 | 0.00 | 0.00 | 26 | 1010.9 |
| 20260507021020 | 24 | 191 | 4.8 | 8.0 | 0.00 | 0.00 | 0.00 | 25 | 1010.7 |
| 20260507020019 | 24 | 221 | 3.2 | 4.8 | 0.00 | 0.00 | 0.00 | 25 | 1010.5 |
| 20260507015518 | 25 | 218 | 1.6 | 4.8 | 0.00 | 0.00 | 0.00 | 24 | 1010.4 |
| 20260507015018 | 25 | 185 | 1.6 | 4.8 | 0.00 | 0.00 | 0.00 | 24 | 1010.4 |
| 20260507014526 | 25 | 170 | 1.6 | 4.8 | 0.00 | 0.00 | 0.00 | 24 | 1010.3 |
| 20260507014018 | 25 | 153 | 1.6 | 3.2 | 0.00 | 0.00 | 0.00 | 24 | 1010.3 |
| 20260507013517 | 25 | 153 | 1.6 | 4.8 | 0.00 | 0.00 | 0.00 | 24 | 1010.3 |
| 20260507013017 | 25 | 153 | 1.6 | 4.8 | 0.00 | 0.00 | 0.00 | 23 | 1010.3 |
| 20260507012519 | 25 | 153 | 1.6 | 4.8 | 0.00 | 0.00 | 0.00 | 23 | 1010.1 |
| 20260507012019 | 25 | 153 | 1.6 | 6.4 | 0.00 | 0.00 | 0.00 | 23 | 1010.1 |
| 20260507011519 | 25 | 163 | 1.6 | 6.4 | 0.00 | 0.00 | 0.00 | 23 | 1010.0 |
| 20260507011017 | 25 | 173 | 1.6 | 8.0 | 0.00 | 0.00 | 0.00 | 23 | 1010.0 |
| 20260507010017 | 25 | 185 | 3.2 | 6.4 | 0.00 | 0.00 | 0.00 | 22 | 1009.9 |
| 20260507005517 | 25 | 127 | 1.6 | 6.4 | 0.00 | 0.00 | 0.00 | 22 | 1009.8 |
| 20260507005017 | 26 | 104 | 1.6 | 9.7 | 0.00 | 0.00 | 0.00 | 22 | 1009.8 |
| 20260507004520 | 26 | 122 | 3.2 | 9.7 | 0.00 | 0.00 | 0.00 | 21 | 1009.8 |
| 20260507004020 | 26 | 147 | 3.2 | 9.7 | 0.00 | 0.00 | 0.00 | 21 | 1009.8 |
| 20260507003515 | 26 | 110 | 4.8 | 9.7 | 0.00 | 0.00 | 0.00 | 21 | 1009.8 |
| 20260507003015 | 26 | 81 | 4.8 | 9.7 | 0.00 | 0.00 | 0.00 | 20 | 1009.8 |
| 20260507002516 | 26 | 127 | 4.8 | 9.7 | 0.00 | 0.00 | 0.00 | 18 | 1009.7 |
| 20260507002016 | 26 | 127 | 4.8 | 8.0 | 0.00 | 0.00 | 0.00 | 18 | 1009.7 |
| 20260507001521 | 27 | 70 | 4.8 | 8.0 | 0.00 | 0.00 | 0.00 | 16 | 1009.5 |
| 20260507001017 | 27 | 68 | 4.8 | 14.5 | 0.00 | 0.00 | 0.00 | 14 | 1009.6 |
| 20260507000022 | 27 | 54 | 6.4 | 14.5 | 0.00 | 0.00 | 0.00 | 13 | 1009.6 |
| 20260506235515 | 27 | 67 | 3.2 | 8.0 | 0.00 | 0.00 | 0.00 | 13 | 1009.6 |
| 20260506235015 | 27 | 86 | 4.8 | 8.0 | 0.00 | 0.00 | 0.00 | 13 | 1009.6 |
| 20260506234516 | 27 | 61 | 3.2 | 9.7 | 0.00 | 0.00 | 0.00 | 13 | 1009.5 |
| 20260506234016 | 27 | 46 | 3.2 | 9.7 | 0.00 | 0.00 | 0.00 | 13 | 1009.4 |
| 20260506233516 | 28 | 31 | 4.8 | 11.3 | 0.00 | 0.00 | 0.00 | 12 | 1009.5 |
| 20260506233015 | 28 | 39 | 3.2 | 16.1 | 0.00 | 0.00 | 0.00 | 12 | 1009.3 |
| 20260506232515 | 28 | 60 | 8.0 | 12.9 | 0.00 | 0.00 | 0.00 | 12 | 1009.3 |
| 20260506232014 | 28 | 54 | 4.8 | 12.9 | 0.00 | 0.00 | 0.00 | 12 | 1009.3 |
| 20260506231515 | 28 | 50 | 4.8 | 14.5 | 0.00 | 0.00 | 0.00 | 12 | 1009.4 |
| 20260506231018 | 28 | 41 | 6.4 | 14.5 | 0.00 | 0.00 | 0.00 | 13 | 1009.4 |
| 20260506230017 | 28 | 86 | 3.2 | 14.5 | 0.00 | 0.00 | 0.00 | 12 | 1009.3 |
| 20260506225517 | 28 | 70 | 6.4 | 17.7 | 0.00 | 0.00 | 0.00 | 12 | 1009.3 |
| 20260506225014 | 28 | 61 | 11.3 | 17.7 | 0.00 | 0.00 | 0.00 | 11 | 1009.2 |
| 20260506224514 | 28 | 41 | 4.8 | 20.9 | 0.00 | 0.00 | 0.00 | 12 | 1009.2 |
| 20260506224015 | 29 | 15 | 12.9 | 20.9 | 0.00 | 0.00 | 0.00 | 11 | 1009.2 |
| 20260506223513 | 29 | 81 | 11.3 | 19.3 | 0.00 | 0.00 | 0.00 | 11 | 1009.3 |
| 20260506223013 | 29 | 19 | 3.2 | 16.1 | 0.00 | 0.00 | 0.00 | 11 | 1009.2 |
| 20260506222513 | 28 | 49 | 9.7 | 16.1 | 0.00 | 0.00 | 0.00 | 12 | 1009.5 |
| 20260506222016 | 28 | 56 | 4.8 | 12.9 | 0.00 | 0.00 | 0.00 | 11 | 1009.6 |
| 20260506221513 | 28 | 348 | 3.2 | 12.9 | 0.00 | 0.00 | 0.00 | 11 | 1009.6 |
| 20260506221017 | 29 | 17 | 6.4 | 14.5 | 0.00 | 0.00 | 0.00 | 11 | 1009.5 |
| 20260506220021 | 29 | 2 | 6.4 | 12.9 | 0.00 | 0.00 | 0.00 | 11 | 1009.5 |
| 20260506215520 | 29 | 36 | 4.8 | 12.9 | 0.00 | 0.00 | 0.00 | 12 | 1009.4 |
| 20260506215018 | 29 | 37 | 3.2 | 16.1 | 0.00 | 0.00 | 0.00 | 11 | 1009.4 |
| 20260506214514 | 29 | 347 | 4.8 | 16.1 | 0.00 | 0.00 | 0.00 | 10 | 1009.5 |
| 20260506214014 | 28 | 1 | 4.8 | 12.9 | 0.00 | 0.00 | 0.00 | 10 | 1009.6 |
| 20260506213513 | 28 | 341 | 6.4 | 14.5 | 0.00 | 0.00 | 0.00 | 10 | 1009.6 |
| 20260506213013 | 28 | 341 | 6.4 | 17.7 | 0.00 | 0.00 | 0.00 | 11 | 1009.6 |
| 20260506212513 | 28 | 300 | 9.7 | 19.3 | 0.00 | 0.00 | 0.00 | 11 | 1009.7 |
| 20260506212015 | 28 | 322 | 9.7 | 19.3 | 0.00 | 0.00 | 0.00 | 11 | 1009.7 |
| 20260506211512 | 28 | 5 | 9.7 | 19.3 | 0.00 | 0.00 | 0.00 | 12 | 1009.8 |
| 20260506211013 | 28 | 324 | 6.4 | 19.3 | 0.00 | 0.00 | 0.00 | 11 | 1009.7 |
| 20260506210012 | 28 | 17 | 8.0 | 19.3 | 0.00 | 0.00 | 0.00 | 12 | 1009.9 |
| 20260506205512 | 28 | 353 | 12.9 | 20.9 | 0.00 | 0.00 | 0.00 | 11 | 1009.9 |
| 20260506205012 | 29 | 356 | 8.0 | 19.3 | 0.00 | 0.00 | 0.00 | 11 | 1009.8 |
| 20260506204513 | 30 | 358 | 8.0 | 19.3 | 0.00 | 0.00 | 0.00 | 11 | 1009.9 |
| 20260506204011 | 30 | 350 | 11.3 | 17.7 | 0.00 | 0.00 | 0.00 | 10 | 1009.9 |
| 20260506203517 | 30 | 43 | 4.8 | 22.5 | 0.00 | 0.00 | 0.00 | 10 | 1010.1 |
| 20260506203011 | 30 | 329 | 14.5 | 22.5 | 0.00 | 0.00 | 0.00 | 9 | 1010.1 |
| 20260506202511 | 30 | 323 | 6.4 | 12.9 | 0.00 | 0.00 | 0.00 | 10 | 1010.2 |
| 20260506202011 | 30 | 6 | 6.4 | 16.1 | 0.00 | 0.00 | 0.00 | 11 | 1010.1 |
| 20260506201516 | 30 | 355 | 12.9 | 17.7 | 0.00 | 0.00 | 0.00 | 11 | 1010.2 |
| 20260506201011 | 30 | 312 | 8.0 | 19.3 | 0.00 | 0.00 | 0.00 | 11 | 1010.0 |
| 20260506200012 | 30 | 20 | 8.0 | 19.3 | 0.00 | 0.00 | 0.00 | 11 | 1010.1 |
| 20260506195512 | 30 | 46 | 6.4 | 20.9 | 0.00 | 0.00 | 0.00 | 11 | 1010.2 |
| 20260506195013 | 30 | 27 | 8.0 | 20.9 | 0.00 | 0.00 | 0.00 | 12 | 1010.2 |
| 20260506194516 | 30 | 3 | 6.4 | 17.7 | 0.00 | 0.00 | 0.00 | 11 | 1010.2 |
| 20260506194010 | 30 | 40 | 4.8 | 17.7 | 0.00 | 0.00 | 0.00 | 13 | 1010.2 |
| 20260506193508 | 30 | 71 | 8.0 | 22.5 | 0.00 | 0.00 | 0.00 | 14 | 1010.2 |
| 20260506193010 | 29 | 352 | 9.7 | 22.5 | 0.00 | 0.00 | 0.00 | 13 | 1010.4 |
| 20260506192511 | 29 | 27 | 8.0 | 20.9 | 0.00 | 0.00 | 0.00 | 14 | 1010.5 |
| 20260506192010 | 30 | 60 | 9.7 | 20.9 | 0.00 | 0.00 | 0.00 | 13 | 1010.5 |
| 20260506191507 | 29 | 297 | 9.7 | 16.1 | 0.00 | 0.00 | 0.00 | 14 | 1010.5 |
| 20260506191006 | 30 | 39 | 6.4 | 19.3 | 0.00 | 0.00 | 0.00 | 15 | 1010.6 |
| 20260506190006 | 29 | 4 | 6.4 | 17.7 | 0.00 | 0.00 | 0.00 | 17 | 1010.7 |
| 20260506185504 | 28 | 35 | 4.8 | 16.1 | 0.00 | 0.00 | 0.00 | 19 | 1010.9 |
| 20260506185004 | 28 | 66 | 11.3 | 16.1 | 0.00 | 0.00 | 0.00 | 17 | 1010.6 |
| 20260506184504 | 29 | 356 | 6.4 | 14.5 | 0.00 | 0.00 | 0.00 | 18 | 1010.9 |
| 20260506184005 | 29 | 27 | 8.0 | 19.3 | 0.00 | 0.00 | 0.00 | 20 | 1011.0 |
| 20260506183504 | 29 | 43 | 11.3 | 19.3 | 0.00 | 0.00 | 0.00 | 18 | 1011.1 |
| 20260506183004 | 29 | 25 | 9.7 | 17.7 | 0.00 | 0.00 | 0.00 | 19 | 1011.1 |
| 20260506182503 | 29 | 44 | 6.4 | 17.7 | 0.00 | 0.00 | 0.00 | 17 | 1011.2 |
| 20260506182004 | 29 | 6 | 6.4 | 16.1 | 0.00 | 0.00 | 0.00 | 18 | 1011.2 |
| 20260506181502 | 28 | 340 | 4.8 | 22.5 | 0.00 | 0.00 | 0.00 | 21 | 1011.2 |
| 20260506181059 | 28 | 25 | 12.9 | 22.5 | 0.00 | 0.00 | 0.00 | 22 | 1011.2 |
| 20260506180107 | 27 | 76 | 11.3 | 22.5 | 0.00 | 0.00 | 0.00 | 25 | 1011.3 |
| 20260506175557 | 27 | 52 | 9.7 | 16.1 | 0.00 | 0.00 | 0.00 | 25 | 1011.3 |
| 20260506175101 | 27 | 50 | 9.7 | 19.3 | 0.00 | 0.00 | 0.00 | 26 | 1011.3 |
| 20260506174558 | 27 | 56 | 11.3 | 19.3 | 0.00 | 0.00 | 0.00 | 26 | 1011.4 |
| 20260506174100 | 26 | 22 | 11.3 | 19.3 | 0.00 | 0.00 | 0.00 | 27 | 1011.5 |
| 20260506173558 | 27 | 63 | 11.3 | 19.3 | 0.00 | 0.00 | 0.00 | 25 | 1011.5 |
| 20260506173059 | 27 | 81 | 8.0 | 17.7 | 0.00 | 0.00 | 0.00 | 26 | 1011.5 |
| 20260506172557 | 27 | 345 | 6.4 | 20.9 | 0.00 | 0.00 | 0.00 | 27 | 1011.6 |
| 20260506172054 | 27 | 44 | 11.3 | 22.5 | 0.00 | 0.00 | 0.00 | 28 | 1011.7 |
| 20260506171558 | 26 | 58 | 9.7 | 22.5 | 0.00 | 0.00 | 0.00 | 29 | 1011.5 |
| 20260506171056 | 26 | 20 | 4.8 | 19.3 | 0.00 | 0.00 | 0.00 | 30 | 1011.5 |
| 20260506170105 | 26 | 77 | 8.0 | 12.9 | 0.00 | 0.00 | 0.00 | 30 | 1011.5 |
| 20260506165555 | 26 | 14 | 4.8 | 12.9 | 0.00 | 0.00 | 0.00 | 31 | 1011.5 |
| 20260506165055 | 26 | 34 | 4.8 | 12.9 | 0.00 | 0.00 | 0.00 | 32 | 1011.5 |
| 20260506164557 | 26 | 39 | 4.8 | 19.3 | 0.00 | 0.00 | 0.00 | 31 | 1011.3 |
| 20260506164053 | 26 | 47 | 11.3 | 19.3 | 0.00 | 0.00 | 0.00 | 32 | 1011.2 |
| 20260506163555 | 26 | 43 | 8.0 | 17.7 | 0.00 | 0.00 | 0.00 | 32 | 1011.3 |
| 20260506163111 | 26 | 27 | 6.4 | 19.3 | 0.00 | 0.00 | 0.00 | 33 | 1011.3 |
| 20260506162553 | 25 | 5 | 9.7 | 20.9 | 0.00 | 0.00 | 0.00 | 34 | 1011.3 |
| 20260506162054 | 25 | 53 | 12.9 | 22.5 | 0.00 | 0.00 | 0.00 | 35 | 1011.3 |
| 20260506161556 | 25 | 30 | 11.3 | 20.9 | 0.00 | 0.00 | 0.00 | 36 | 1011.2 |
| 20260506161052 | 25 | 39 | 12.9 | 20.9 | 0.00 | 0.00 | 0.00 | 36 | 1011.1 |
| 20260506160050 | 25 | 50 | 12.9 | 22.5 | 0.00 | 0.00 | 0.00 | 36 | 1011.0 |
| 20260506155552 | 25 | 41 | 11.3 | 20.9 | 0.00 | 0.00 | 0.00 | 36 | 1010.9 |
| 20260506155047 | 26 | 36 | 12.9 | 20.9 | 0.00 | 0.00 | 0.00 | 35 | 1010.8 |
| 20260506154606 | 26 | 44 | 8.0 | 17.7 | 0.00 | 0.00 | 0.00 | 34 | 1010.6 |
| 20260506154046 | 26 | 44 | 8.0 | 14.5 | 0.00 | 0.00 | 0.00 | 34 | 1010.6 |
| 20260506153544 | 26 | 21 | 6.4 | 16.1 | 0.00 | 0.00 | 0.00 | 34 | 1010.6 |
| 20260506153054 | 26 | 52 | 9.7 | 16.1 | 0.00 | 0.00 | 0.00 | 33 | 1010.6 |
| 20260506152543 | 26 | 62 | 8.0 | 14.5 | 0.00 | 0.00 | 0.00 | 33 | 1010.5 |
| 20260506152042 | 26 | 8 | 4.8 | 11.3 | 0.00 | 0.00 | 0.00 | 32 | 1010.4 |
| 20260506151541 | 26 | 337 | 4.8 | 11.3 | 0.00 | 0.00 | 0.00 | 31 | 1010.3 |
| 20260506151040 | 25 | 356 | 4.8 | 9.7 | 0.00 | 0.00 | 0.00 | 31 | 1010.3 |
| 20260506150040 | 25 | 43 | 3.2 | 6.4 | 0.00 | 0.00 | 0.00 | 32 | 1010.3 |
| 20260506145538 | 25 | 8 | 3.2 | 11.3 | 0.00 | 0.00 | 0.00 | 33 | 1010.3 |
| 20260506145037 | 25 | 4 | 3.2 | 11.3 | 0.00 | 0.00 | 0.00 | 33 | 1010.2 |
| 20260506144535 | 24 | 4 | 3.2 | 11.3 | 0.00 | 0.00 | 0.00 | 34 | 1010.2 |
| 20260506144034 | 23 | 32 | 4.8 | 9.7 | 0.00 | 0.00 | 0.00 | 32 | 1010.3 |
| 20260506143537 | 23 | 59 | 3.2 | 6.4 | 0.00 | 0.00 | 0.00 | 30 | 1010.3 |
| 20260506143045 | 23 | 150 | 1.6 | 4.8 | 0.00 | 0.00 | 0.00 | 31 | 1010.2 |
| 20260506142536 | 23 | 127 | 3.2 | 4.8 | 0.00 | 0.00 | 0.00 | 32 | 1010.1 |
| 20260506142031 | 23 | 127 | 1.6 | 4.8 | 0.00 | 0.00 | 0.00 | 33 | 1010.1 |
| 20260506141535 | 23 | 178 | 0.0 | 4.8 | 0.00 | 0.00 | 0.00 | 34 | 1010.1 |
| 20260506141034 | 23 | 162 | 3.2 | 6.4 | 0.00 | 0.00 | 0.00 | 34 | 1010.1 |
| 20260506140031 | 23 | 100 | 1.6 | 4.8 | 0.00 | 0.00 | 0.00 | 32 | 1010.2 |
| 20260506135529 | 23 | 93 | 3.2 | 4.8 | 0.00 | 0.00 | 0.00 | 32 | 1010.2 |
| 20260506135028 | 22 | 89 | 0.0 | 4.8 | 0.00 | 0.00 | 0.00 | 34 | 1010.1 |
| 20260506134527 | 22 | 107 | 0.0 | 4.8 | 0.00 | 0.00 | 0.00 | 35 | 1009.8 |
| 20260506134026 | 22 | 191 | 1.6 | 6.4 | 0.00 | 0.00 | 0.00 | 36 | 1009.8 |
| 20260506133525 | 21 | 178 | 0.0 | 6.4 | 0.00 | 0.00 | 0.00 | 37 | 1009.8 |
| 20260506133023 | 21 | 200 | 3.2 | 6.4 | 0.00 | 0.00 | 0.00 | 36 | 1009.8 |
| 20260506132524 | 21 | 139 | 3.2 | 6.4 | 0.00 | 0.00 | 0.00 | 36 | 1009.8 |
| 20260506132024 | 21 | 117 | 0.0 | 3.2 | 0.00 | 0.00 | 0.00 | 38 | 1009.9 |
| 20260506131522 | 20 | 223 | 0.0 | 6.4 | 0.00 | 0.00 | 0.00 | 39 | 1009.8 |
| 20260506131025 | 20 | 174 | 1.6 | 4.8 | 0.00 | 0.00 | 0.00 | 39 | 1009.7 |
| 20260506130624 | 20 | 202 | 0.0 | 3.2 | 0.00 | 0.00 | 0.00 | 42 | 1009.7 |
| 20260506130023 | 20 | 202 | 1.6 | 3.2 | 0.00 | 0.00 | 0.00 | 43 | 1009.6 |
| 20260506125522 | 19 | 202 | 1.6 | 4.8 | 0.00 | 0.00 | 0.00 | 43 | 1009.7 |
| 20260506125022 | 19 | 210 | 0.0 | 4.8 | 0.00 | 0.00 | 0.00 | 44 | 1009.6 |
| 20260506124522 | 19 | 212 | 3.2 | 6.4 | 0.00 | 0.00 | 0.00 | 45 | 1009.7 |
| 20260506124021 | 19 | 212 | 1.6 | 6.4 | 0.00 | 0.00 | 0.00 | 45 | 1009.8 |
| 20260506123520 | 19 | 351 | 0.0 | 4.8 | 0.00 | 0.00 | 0.00 | 45 | 1009.6 |
| 20260506123019 | 19 | 351 | 1.6 | 6.4 | 0.00 | 0.00 | 0.00 | 45 | 1009.4 |
| 20260506122520 | 19 | 351 | 3.2 | 12.9 | 0.00 | 0.00 | 0.00 | 45 | 1009.2 |
| 20260506122018 | 19 | 352 | 3.2 | 12.9 | 0.00 | 0.00 | 0.00 | 45 | 1009.1 |
| 20260506121517 | 19 | 327 | 1.6 | 9.7 | 0.00 | 0.00 | 0.00 | 44 | 1008.8 |
| 20260506121016 | 19 | 54 | 0.0 | 3.2 | 0.00 | 0.00 | 0.00 | 45 | 1008.4 |
| 20260506120017 | 19 | 54 | 1.6 | 4.8 | 0.00 | 0.00 | 0.00 | 44 | 1008.2 |
| 20260506115516 | 19 | 54 | 0.0 | 11.3 | 0.00 | 0.00 | 0.00 | 44 | 1008.2 |
| 20260506115017 | 19 | 53 | 6.4 | 11.3 | 0.00 | 0.00 | 0.00 | 44 | 1008.3 |
| 20260506114515 | 19 | 25 | 0.0 | 4.8 | 0.00 | 0.00 | 0.00 | 44 | 1008.3 |
| 20260506114015 | 19 | 25 | 1.6 | 4.8 | 0.00 | 0.00 | 0.00 | 44 | 1008.3 |
| 20260506113514 | 19 | 25 | 1.6 | 4.8 | 0.00 | 0.00 | 0.00 | 44 | 1008.2 |
| 20260506113014 | 19 | 1 | 1.6 | 4.8 | 0.00 | 0.00 | 0.00 | 44 | 1008.2 |
| 20260506112516 | 19 | 348 | 0.0 | 1.6 | 0.00 | 0.00 | 0.00 | 43 | 1008.1 |
| 20260506112013 | 19 | 348 | 0.0 | 3.2 | 0.00 | 0.00 | 0.00 | 43 | 1007.9 |
| 20260506111513 | 19 | 348 | 0.0 | 3.2 | 0.00 | 0.00 | 0.00 | 42 | 1008.0 |
| 20260506111011 | 20 | 356 | 1.6 | 8.0 | 0.00 | 0.00 | 0.00 | 40 | 1007.8 |
| 20260506110010 | 20 | 17 | 3.2 | 8.0 | 0.00 | 0.00 | 0.00 | 40 | 1007.6 |
| 20260506105508 | 20 | 10 | 4.8 | 9.7 | 0.00 | 0.00 | 0.00 | 36 | 1007.5 |
| 20260506105008 | 21 | 1 | 4.8 | 9.7 | 0.00 | 0.00 | 0.00 | 34 | 1007.6 |
| 20260506104506 | 21 | 326 | 4.8 | 9.7 | 0.00 | 0.00 | 0.00 | 33 | 1007.7 |
| 20260506104005 | 21 | 327 | 4.8 | 9.7 | 0.00 | 0.00 | 0.00 | 33 | 1007.8 |
| 20260506103504 | 21 | 351 | 3.2 | 8.0 | 0.00 | 0.00 | 0.00 | 32 | 1007.9 |
| 20260506103003 | 21 | 301 | 4.8 | 14.5 | 0.00 | 0.00 | 0.00 | 32 | 1007.8 |
| 20260506102502 | 21 | 333 | 6.4 | 16.1 | 0.00 | 0.00 | 0.00 | 31 | 1007.7 |
| 20260506102001 | 21 | 327 | 9.7 | 16.1 | 0.00 | 0.00 | 0.00 | 31 | 1007.8 |
| 20260506101500 | 21 | 344 | 8.0 | 16.1 | 0.00 | 0.00 | 0.00 | 31 | 1007.7 |
| 20260506101001 | 21 | 316 | 3.2 | 11.3 | 0.00 | 0.00 | 0.00 | 32 | 1007.7 |
| 20260506100001 | 21 | 316 | 4.8 | 11.3 | 0.00 | 0.00 | 0.00 | 32 | 1007.3 |
| 20260506095601 | 21 | 325 | 4.8 | 11.3 | 0.00 | 0.00 | 0.00 | 32 | 1007.3 |
| 20260506095503 | 21 | 331 | 6.4 | 11.3 | 0.00 | 0.00 | 0.00 | 32 | 1007.3 |
| 20260506095103 | 21 | 306 | 0.0 | 6.4 | 0.00 | 0.00 | 0.00 | 32 | 1007.5 |
| 20260506094627 | 21 | 306 | 0.0 | 8.0 | 0.00 | 0.00 | 0.00 | 32 | 1007.4 |
| 20260506094100 | 21 | 302 | 3.2 | 8.0 | 0.00 | 0.00 | 0.00 | 31 | 1007.2 |
| 20260506093600 | 21 | 338 | 3.2 | 8.0 | 0.00 | 0.00 | 0.00 | 30 | 1007.2 |
| 20260506093101 | 22 | 345 | 3.2 | 9.7 | 0.00 | 0.00 | 0.00 | 28 | 1007.0 |
| 20260506092600 | 21 | 2 | 3.2 | 11.3 | 0.00 | 0.00 | 0.00 | 28 | 1007.0 |
| 20260506092100 | 21 | 342 | 4.8 | 11.3 | 0.00 | 0.00 | 0.00 | 28 | 1007.1 |
| 20260506091600 | 21 | 225 | 0.0 | 6.4 | 0.00 | 0.00 | 0.00 | 28 | 1006.8 |
| 20260506091059 | 21 | 225 | 3.2 | 6.4 | 0.00 | 0.00 | 0.00 | 28 | 1006.7 |